Monett, MO

3:50 AM CST on February 25, 2017 (GMT -0600)
Monett

Weather History for KHFJ - October, 2013

Change the Weather History Date:

Saturday, October 19, 2013

  Actual Average (KJLN) Record (KJLN)
Temperature  
Mean Temperature 44 °F -  
Max Temperature 55 °F 66 °F 93 °F (2005)
Min Temperature 33 °F 43 °F 27 °F (1989)
Degree Days  
Heating Degree Days 21    
Moisture  
Dew Point 36 °F    
Average Humidity 77    
Maximum Humidity 100    
Minimum Humidity 44    
Precipitation  
Precipitation 0.00 in - - ()
Sea Level Pressure  
Sea Level Pressure 30.06 in    
Wind  
Wind Speed 8 mph (WSW)    
Max Wind Speed 12 mph    
Max Gust Speed 17 mph    
Visibility 9 miles    
Events      
Averages and records for this station are not official NWS values.
T = Trace of Precipitation, MM = Missing Value Source: NWS Daily Summary

Daily Weather History Graph

Daily Weather History Graph

Search for Another Location

Airport or City:

Trip Planner

Search our weather history database for the weather conditions in past years. The results will help you decide how hot, cold, wet, or windy it might be!

Date:

Astronomy

Oct. 19, 2013 Rise Set
Actual Time 7:27 AM CDT 6:33 PM CDT
Civil Twilight 7:01 AM CDT 6:59 PM CDT
Nautical Twilight 6:31 AM CDT 7:30 PM CDT
Astronomical Twilight 6:01 AM CDT 8:00 PM CDT
Moon 7:03 PM CDT (10/19) 8:04 AM CDT (10/19)
Length of Visible Light 11h 58m
Length of Day
11h 06m
Waxing Gibbous, 99% of the Moon is Illuminated
Oct 19
Waxing Gibbous
Oct 26
Last Quarter
Nov 3
New
Nov 9
First Quarter
Nov 17
Full

Hourly Weather History & Observations

Time (CDT) Temp. Windchill Dew Point Humidity Pressure Visibility Wind Dir Wind Speed Gust Speed Precip Events Conditions
12:15 AM 37.4 °F 30.8 °F 37.4 °F 100% 30.08 in 3.0 mi NNW 9.2 mph - N/A   Drizzle
12:35 AM 37.4 °F 32.1 °F 37.4 °F 100% 30.08 in 5.0 mi NNW 6.9 mph - N/A   Light Drizzle
12:55 AM 37.4 °F 31.4 °F 37.4 °F 100% 30.08 in 5.0 mi NW 8.1 mph - N/A   Overcast
1:15 AM 37.4 °F 31.4 °F 37.4 °F 100% 30.08 in 5.0 mi NW 8.1 mph - N/A   Overcast
1:35 AM 37.4 °F 32.1 °F 37.4 °F 100% 30.07 in 10.0 mi NW 6.9 mph - N/A   Overcast
1:55 AM 37.4 °F 32.1 °F 37.4 °F 100% 30.07 in 7.0 mi NW 6.9 mph - N/A   Overcast
2:15 AM 37.4 °F 31.4 °F 37.4 °F 100% 30.08 in 10.0 mi NW 8.1 mph - N/A   Overcast
2:35 AM 37.4 °F 29.8 °F 37.4 °F 100% 30.08 in 7.0 mi NW 11.5 mph - N/A   Overcast
2:55 AM 37.4 °F 29.8 °F 35.6 °F 93% 30.08 in 7.0 mi NW 11.5 mph - N/A   Overcast
3:15 AM 37.4 °F 30.8 °F 35.6 °F 93% 30.07 in 10.0 mi WNW 9.2 mph - N/A   Overcast
3:35 AM 37.4 °F 30.8 °F 35.6 °F 93% 30.07 in 10.0 mi NW 9.2 mph - N/A   Overcast
3:55 AM 35.6 °F 28.6 °F 35.6 °F 100% 30.08 in 10.0 mi NW 9.2 mph - N/A   Overcast
4:15 AM 35.6 °F 30.7 °F 35.6 °F 100% 30.08 in 10.0 mi NW 5.8 mph - N/A   Overcast
4:35 AM 35.6 °F 28.6 °F 33.8 °F 93% 30.08 in 10.0 mi NW 9.2 mph - N/A   Overcast
4:55 AM 35.6 °F 29.9 °F 35.6 °F 100% 30.08 in 10.0 mi WNW 6.9 mph - N/A   Overcast
5:15 AM 35.6 °F 31.7 °F 33.8 °F 93% 30.08 in 10.0 mi NW 4.6 mph - N/A   Overcast
5:35 AM 35.6 °F 32.8 °F 33.8 °F 93% 30.08 in 10.0 mi WNW 3.5 mph - N/A   Overcast
5:55 AM 35.6 °F 32.8 °F 33.8 °F 93% 30.08 in 10.0 mi West 3.5 mph - N/A   Overcast
6:15 AM 35.6 °F 30.7 °F 33.8 °F 93% 30.08 in 7.0 mi West 5.8 mph - N/A   Overcast
6:35 AM 33.8 °F 30.8 °F 33.8 °F 100% 30.08 in 7.0 mi WSW 3.5 mph - N/A   Overcast
6:55 AM 33.8 °F 27.7 °F 33.8 °F 100% 30.08 in 7.0 mi West 6.9 mph - N/A   Overcast
7:15 AM 33.8 °F 28.6 °F 33.8 °F 100% 30.09 in 5.0 mi SW 5.8 mph - N/A   Overcast
7:35 AM 33.8 °F 27.7 °F 33.8 °F 100% 30.09 in 5.0 mi WSW 6.9 mph - N/A   Overcast
7:55 AM 33.8 °F 27.7 °F 33.8 °F 100% 30.09 in 7.0 mi West 6.9 mph - N/A   Overcast
8:15 AM 33.8 °F 28.6 °F 33.8 °F 100% 30.09 in 5.0 mi West 5.8 mph - N/A   Overcast
8:35 AM 33.8 °F 27.7 °F 33.8 °F 100% 30.10 in 5.0 mi SW 6.9 mph - N/A   Overcast
8:55 AM 35.6 °F 30.7 °F 33.8 °F 93% 30.10 in 7.0 mi WSW 5.8 mph - N/A   Overcast
9:15 AM 35.6 °F 29.2 °F 33.8 °F 93% 30.11 in 7.0 mi SW 8.1 mph - N/A   Overcast
9:35 AM 35.6 °F 29.9 °F 33.8 °F 93% 30.12 in 10.0 mi SW 6.9 mph - N/A   Overcast
9:55 AM 37.4 °F 30.8 °F 35.6 °F 93% 30.12 in 10.0 mi WSW 9.2 mph - N/A   Mostly Cloudy
10:15 AM 39.2 °F 33.6 °F 35.6 °F 87% 30.12 in 10.0 mi SW 8.1 mph - N/A   Mostly Cloudy
10:35 AM 41.0 °F 36.4 °F 35.6 °F 81% 30.12 in 10.0 mi SW 6.9 mph - N/A   Scattered Clouds
10:55 AM 42.8 °F 36.6 °F 35.6 °F 76% 30.12 in 10.0 mi WSW 11.5 mph - N/A   Clear
11:15 AM 44.6 °F 39.2 °F 35.6 °F 71% 30.11 in 10.0 mi SW 10.4 mph - N/A   Clear
11:35 AM 44.6 °F 39.2 °F 35.6 °F 71% 30.11 in 10.0 mi WSW 10.4 mph 16.1 mph N/A   Clear
11:55 AM 46.4 °F 41.1 °F 37.4 °F 71% 30.10 in 10.0 mi SW 11.5 mph - N/A   Clear
12:35 PM 50.0 °F - 37.4 °F 62% 30.08 in 10.0 mi SW 9.2 mph 16.1 mph N/A   Clear
1:35 PM 51.8 °F - 37.4 °F 58% 30.06 in 10.0 mi WSW 8.1 mph - N/A   Clear
1:55 PM 53.6 °F - 37.4 °F 54% 30.05 in 10.0 mi WSW 10.4 mph - N/A   Clear
2:15 PM 53.6 °F - 37.4 °F 54% 30.05 in 10.0 mi WSW 10.4 mph - N/A   Clear
2:35 PM 55.4 °F - 35.6 °F 47% 30.04 in 10.0 mi SW 8.1 mph - N/A   Clear
2:55 PM 55.4 °F - 35.6 °F 47% 30.04 in 10.0 mi West 10.4 mph 17.3 mph N/A   Clear
3:15 PM 55.4 °F - 35.6 °F 47% 30.04 in 10.0 mi West 9.2 mph - N/A   Clear
3:35 PM 55.4 °F - 35.6 °F 47% 30.03 in 10.0 mi West 9.2 mph - N/A   Clear
3:55 PM 55.4 °F - 33.8 °F 44% 30.03 in 10.0 mi WSW 10.4 mph - N/A   Clear
4:15 PM 55.4 °F - 33.8 °F 44% 30.03 in 10.0 mi WSW 11.5 mph - N/A   Clear
4:35 PM 55.4 °F - 33.8 °F 44% 30.03 in 10.0 mi WSW 8.1 mph - N/A   Clear
4:55 PM 55.4 °F - 33.8 °F 44% 30.02 in 10.0 mi SW 11.5 mph - N/A   Clear
5:15 PM 55.4 °F - 35.6 °F 47% 30.02 in 10.0 mi WSW 9.2 mph - N/A   Clear
5:35 PM 53.6 °F - 35.6 °F 51% 30.02 in 10.0 mi SW 10.4 mph - N/A   Clear
5:55 PM 53.6 °F - 35.6 °F 51% 30.02 in 10.0 mi SW 10.4 mph - N/A   Clear
6:15 PM 51.8 °F - 37.4 °F 58% 30.01 in 10.0 mi SW 5.8 mph - N/A   Clear
6:35 PM 50.0 °F - 37.4 °F 62% 30.01 in 10.0 mi SSW 5.8 mph - N/A   Clear
6:55 PM 48.2 °F - 35.6 °F 62% 30.01 in 10.0 mi South 5.8 mph - N/A   Clear
7:15 PM 46.4 °F 43.5 °F 35.6 °F 66% 30.01 in 10.0 mi SSW 5.8 mph - N/A   Clear
7:35 PM 46.4 °F 43.5 °F 35.6 °F 66% 30.01 in 10.0 mi South 5.8 mph - N/A   Clear
7:55 PM 46.4 °F 43.5 °F 35.6 °F 66% 30.01 in 10.0 mi South 5.8 mph - N/A   Clear
8:15 PM 46.4 °F 43.5 °F 35.6 °F 66% 30.01 in 10.0 mi South 5.8 mph - N/A   Clear
8:35 PM 44.6 °F 41.4 °F 35.6 °F 71% 30.02 in 10.0 mi South 5.8 mph - N/A   Clear
8:55 PM 44.6 °F 40.7 °F 35.6 °F 71% 30.01 in 10.0 mi South 6.9 mph - N/A   Clear
9:15 PM 44.6 °F 40.7 °F 35.6 °F 71% 30.01 in 10.0 mi SSW 6.9 mph - N/A   Clear
9:35 PM 44.6 °F 40.7 °F 35.6 °F 71% 30.01 in 10.0 mi SSW 6.9 mph - N/A   Clear
9:55 PM 44.6 °F 40.7 °F 35.6 °F 71% 30.02 in 10.0 mi South 6.9 mph - N/A   Clear
10:15 PM 44.6 °F 40.2 °F 35.6 °F 71% 30.02 in 10.0 mi South 8.1 mph - N/A   Clear
10:35 PM 44.6 °F 40.2 °F 35.6 °F 71% 30.02 in 10.0 mi South 8.1 mph - N/A   Clear
10:55 PM 44.6 °F 40.7 °F 35.6 °F 71% 30.02 in 10.0 mi SSW 6.9 mph - N/A   Clear
11:15 PM 44.6 °F 39.7 °F 35.6 °F 71% 30.02 in 10.0 mi South 9.2 mph - N/A   Clear
11:35 PM 44.6 °F 40.2 °F 35.6 °F 71% 30.01 in 10.0 mi South 8.1 mph - N/A   Clear
11:55 PM 44.6 °F 39.7 °F 37.4 °F 76% 30.01 in 10.0 mi SSW 9.2 mph - N/A   Clear